CKK2371 ZSHC-ZBAA

Flight info

Callsign CKK2371
Flight time 1h 44m
Altitude 32100
Route NIVIK5E NIVIK W135 DOGVI A470 DPX A593 DALIM W157 AVBOX AVBOX8Y
Aircraft B77L/H-SDE1E2E3FGHIJ2J3J4J5M1RWXY/LB1D1

Departure

Time 2026-05-06 06:13
Airport Hangzhou Xiaoshan International Airport (ZSHC)

Arrival

Time 2026-05-06 07:58
Airport Beijing Capital International Airport (ZBAA)
Time Latitude Longitude Altitude Speed Heading
2026-05-06 05:29 30.24704 120.44127 36 ft 0 kts 152°
2026-05-06 05:53 30.24712 120.44122 34 ft 4 kts 152°
2026-05-06 05:53 30.24736 120.44107 35 ft 4 kts 152°
2026-05-06 05:53 30.24759 120.44092 34 ft 2 kts 152°
2026-05-06 05:53 30.24778 120.44083 35 ft 4 kts 182°
2026-05-06 05:54 30.24794 120.44089 36 ft 4 kts 234°
2026-05-06 05:54 30.24807 120.44115 33 ft 3 kts 246°
2026-05-06 05:54 30.24808 120.44119 33 ft 0 kts 245°
2026-05-06 05:58 30.24807 120.44117 33 ft 1 kts 245°
2026-05-06 05:59 30.24801 120.44100 35 ft 3 kts 244°
2026-05-06 05:59 30.24787 120.44069 35 ft 5 kts 244°
2026-05-06 05:59 30.24768 120.44023 36 ft 7 kts 243°
2026-05-06 05:59 30.24742 120.43964 36 ft 9 kts 243°
2026-05-06 06:00 30.24711 120.43893 36 ft 11 kts 243°
2026-05-06 06:00 30.24675 120.43809 36 ft 12 kts 243°
2026-05-06 06:00 30.24634 120.43715 36 ft 14 kts 243°
2026-05-06 06:00 30.24607 120.43655 36 ft 10 kts 242°
2026-05-06 06:01 30.24571 120.43577 37 ft 11 kts 243°
2026-05-06 06:01 30.24607 120.43510 37 ft 12 kts 338°
2026-05-06 06:01 30.24687 120.43476 36 ft 13 kts 324°
2026-05-06 06:01 30.24683 120.43387 37 ft 13 kts 227°
2026-05-06 06:02 30.24635 120.43299 37 ft 8 kts 272°
2026-05-06 06:02 30.24673 120.43251 37 ft 9 kts 307°
2026-05-06 06:02 30.24667 120.43180 37 ft 9 kts 246°
2026-05-06 06:02 30.24639 120.43113 37 ft 9 kts 244°
2026-05-06 06:03 30.24608 120.43047 37 ft 9 kts 240°
2026-05-06 06:03 30.24576 120.42981 36 ft 9 kts 241°
2026-05-06 06:03 30.24545 120.42915 36 ft 9 kts 241°
2026-05-06 06:03 30.24514 120.42849 35 ft 9 kts 243°
2026-05-06 06:04 30.24485 120.42782 36 ft 9 kts 243°
2026-05-06 06:04 30.24456 120.42714 36 ft 9 kts 243°
2026-05-06 06:04 30.24427 120.42647 36 ft 9 kts 243°
2026-05-06 06:04 30.24398 120.42580 36 ft 9 kts 243°
2026-05-06 06:05 30.24369 120.42512 36 ft 9 kts 243°
2026-05-06 06:05 30.24339 120.42445 36 ft 9 kts 243°
2026-05-06 06:05 30.24310 120.42378 36 ft 9 kts 243°
2026-05-06 06:05 30.24281 120.42311 36 ft 9 kts 243°
2026-05-06 06:06 30.24252 120.42244 36 ft 9 kts 243°
2026-05-06 06:06 30.24222 120.42176 37 ft 9 kts 243°
2026-05-06 06:06 30.24193 120.42110 37 ft 9 kts 243°
2026-05-06 06:06 30.24164 120.42043 37 ft 9 kts 243°
2026-05-06 06:07 30.24135 120.41976 37 ft 9 kts 243°
2026-05-06 06:07 30.24105 120.41908 36 ft 9 kts 243°
2026-05-06 06:07 30.24076 120.41841 37 ft 9 kts 243°
2026-05-06 06:07 30.24047 120.41774 37 ft 9 kts 243°
2026-05-06 06:08 30.24018 120.41707 36 ft 9 kts 243°
2026-05-06 06:08 30.23985 120.41634 36 ft 12 kts 242°
2026-05-06 06:08 30.23935 120.41524 36 ft 16 kts 242°
2026-05-06 06:08 30.23896 120.41437 36 ft 12 kts 242°
2026-05-06 06:09 30.23856 120.41350 36 ft 12 kts 242°
2026-05-06 06:09 30.23817 120.41263 36 ft 12 kts 242°
2026-05-06 06:09 30.23777 120.41176 37 ft 12 kts 243°
2026-05-06 06:09 30.23744 120.41086 37 ft 9 kts 245°
2026-05-06 06:10 30.23720 120.41028 37 ft 8 kts 245°
2026-05-06 06:10 30.23698 120.40975 37 ft 7 kts 244°
2026-05-06 06:10 30.23695 120.40952 37 ft 3 kts 283°
2026-05-06 06:10 30.23706 120.40930 37 ft 3 kts 301°
2026-05-06 06:11 30.23722 120.40911 38 ft 4 kts 330°
2026-05-06 06:11 30.23747 120.40898 38 ft 4 kts 335°
2026-05-06 06:11 30.23762 120.40890 37 ft 1 kts 335°
2026-05-06 06:11 30.23763 120.40890 37 ft 0 kts 335°
2026-05-06 06:12 30.23765 120.40889 37 ft 1 kts 335°
2026-05-06 06:12 30.23790 120.40875 37 ft 7 kts 336°
2026-05-06 06:12 30.23843 120.40892 39 ft 10 kts 49°
2026-05-06 06:13 30.23897 120.41013 39 ft 30 kts 64°
2026-05-06 06:13 30.24050 120.41369 36 ft 82 kts 62°
2026-05-06 06:13 30.24465 120.42321 40 ft 181 kts 67°
2026-05-06 06:13 30.25050 120.43711 1047 ft 184 kts 65°
2026-05-06 06:14 30.25643 120.45031 2381 ft 199 kts 65°
2026-05-06 06:14 30.26330 120.46565 2714 ft 230 kts 65°
2026-05-06 06:14 30.27114 120.48321 3197 ft 256 kts 64°
2026-05-06 06:14 30.27952 120.50178 4152 ft 265 kts 65°
2026-05-06 06:15 30.28812 120.52109 5078 ft 274 kts 64°
2026-05-06 06:15 30.29699 120.54096 5945 ft 284 kts 64°
2026-05-06 06:15 30.30608 120.56147 6838 ft 283 kts 64°
2026-05-06 06:15 30.31505 120.58194 7539 ft 286 kts 67°
2026-05-06 06:16 30.31936 120.60443 7853 ft 289 kts 92°
2026-05-06 06:16 30.31469 120.62707 7839 ft 292 kts 119°
2026-05-06 06:16 30.30273 120.64595 7841 ft 294 kts 141°
2026-05-06 06:16 30.28592 120.65817 7877 ft 286 kts 156°
2026-05-06 06:17 30.26764 120.66831 7845 ft 289 kts 156°
2026-05-06 06:17 30.25001 120.67814 7844 ft 280 kts 159°
2026-05-06 06:17 30.23127 120.68216 7877 ft 276 kts 189°
2026-05-06 06:17 30.21371 120.67400 7838 ft 276 kts 220°
2026-05-06 06:18 30.20144 120.65686 7837 ft 280 kts 243°
2026-05-06 06:18 30.19578 120.63544 7844 ft 282 kts 265°
2026-05-06 06:18 30.19748 120.61294 7861 ft 284 kts 286°
2026-05-06 06:18 30.20685 120.59305 7859 ft 282 kts 303°
2026-05-06 06:19 30.21836 120.57463 7860 ft 283 kts 304°
2026-05-06 06:19 30.22951 120.55601 7838 ft 279 kts 297°
2026-05-06 06:19 30.23798 120.53588 7857 ft 279 kts 293°
2026-05-06 06:19 30.24647 120.51562 7854 ft 281 kts 296°
2026-05-06 06:20 30.25595 120.49582 7853 ft 282 kts 298°
2026-05-06 06:20 30.26632 120.47646 7855 ft 284 kts 301°
2026-05-06 06:20 30.27736 120.45752 7853 ft 285 kts 303°
2026-05-06 06:20 30.28882 120.43884 7861 ft 285 kts 304°
2026-05-06 06:21 30.30064 120.42037 7850 ft 286 kts 304°
2026-05-06 06:21 30.31250 120.40209 7849 ft 283 kts 305°
2026-05-06 06:21 30.32440 120.38406 7888 ft 281 kts 306°
2026-05-06 06:21 30.33631 120.36607 7845 ft 281 kts 306°
2026-05-06 06:22 30.34824 120.34825 7849 ft 280 kts 306°
2026-05-06 06:22 30.36018 120.33046 7846 ft 280 kts 306°
2026-05-06 06:22 30.37208 120.31262 7847 ft 280 kts 306°
2026-05-06 06:22 30.38404 120.29476 7848 ft 281 kts 306°
2026-05-06 06:23 30.39606 120.27691 7837 ft 281 kts 306°
2026-05-06 06:23 30.40811 120.25905 7849 ft 281 kts 306°
2026-05-06 06:23 30.42007 120.24117 7841 ft 281 kts 306°
2026-05-06 06:23 30.43203 120.22328 7824 ft 281 kts 306°
2026-05-06 06:24 30.44400 120.20546 7839 ft 280 kts 306°
2026-05-06 06:24 30.45595 120.18763 7830 ft 280 kts 306°
2026-05-06 06:24 30.46786 120.16984 7834 ft 280 kts 306°
2026-05-06 06:24 30.47981 120.15200 7829 ft 280 kts 306°
2026-05-06 06:25 30.49361 120.13611 7948 ft 282 kts 320°
2026-05-06 06:25 30.50925 120.12277 8767 ft 285 kts 323°
2026-05-06 06:25 30.54216 120.09606 10595 ft 292 kts 323°
2026-05-06 06:26 30.55911 120.08214 10914 ft 316 kts 323°
2026-05-06 06:26 30.57768 120.06672 11146 ft 343 kts 322°
2026-05-06 06:26 30.59779 120.04989 11389 ft 367 kts 322°
2026-05-06 06:26 30.61871 120.03231 12059 ft 376 kts 322°
2026-05-06 06:27 30.64017 120.01422 12855 ft 382 kts 322°
2026-05-06 06:27 30.66177 119.99597 13731 ft 386 kts 322°
2026-05-06 06:27 30.68355 119.97754 14498 ft 389 kts 322°
2026-05-06 06:27 30.70557 119.95888 15205 ft 394 kts 322°
2026-05-06 06:28 30.72785 119.93999 15927 ft 399 kts 322°
2026-05-06 06:28 30.75040 119.92087 16639 ft 403 kts 322°
2026-05-06 06:28 30.77317 119.90150 17378 ft 407 kts 322°
2026-05-06 06:28 30.79608 119.88189 18065 ft 412 kts 321°
2026-05-06 06:29 30.81929 119.86194 18697 ft 416 kts 321°
2026-05-06 06:29 30.84261 119.84186 19348 ft 419 kts 321°
2026-05-06 06:29 30.86614 119.82162 20016 ft 421 kts 321°
2026-05-06 06:29 30.88970 119.80134 20663 ft 423 kts 321°
2026-05-06 06:30 30.91346 119.78086 21260 ft 427 kts 321°
2026-05-06 06:30 30.93740 119.76022 21857 ft 430 kts 321°
2026-05-06 06:30 30.96156 119.73938 22455 ft 433 kts 321°
2026-05-06 06:30 30.98582 119.71846 23058 ft 436 kts 321°
2026-05-06 06:31 31.01031 119.69732 23606 ft 438 kts 321°
2026-05-06 06:31 31.03485 119.67613 24097 ft 440 kts 321°
2026-05-06 06:31 31.05912 119.65515 24591 ft 442 kts 321°
2026-05-06 06:31 31.08384 119.63377 25120 ft 443 kts 321°
2026-05-06 06:32 31.10867 119.61228 25647 ft 445 kts 321°
2026-05-06 06:32 31.13359 119.59069 26146 ft 447 kts 320°
2026-05-06 06:32 31.15863 119.56898 26658 ft 449 kts 320°
2026-05-06 06:32 31.18376 119.54719 27150 ft 451 kts 320°
2026-05-06 06:33 31.20899 119.52530 27638 ft 453 kts 320°
2026-05-06 06:33 31.23433 119.50329 28135 ft 455 kts 320°
2026-05-06 06:33 31.25978 119.48118 28599 ft 457 kts 320°
2026-05-06 06:33 31.28531 119.45897 29042 ft 459 kts 320°
2026-05-06 06:34 31.31102 119.43660 29486 ft 461 kts 320°
2026-05-06 06:34 31.33679 119.41417 30029 ft 460 kts 319°
2026-05-06 06:34 31.36239 119.39187 30584 ft 458 kts 320°
2026-05-06 06:34 31.38791 119.36963 31064 ft 457 kts 320°
2026-05-06 06:35 31.41338 119.34739 31498 ft 458 kts 320°
2026-05-06 06:35 31.43891 119.32509 31917 ft 458 kts 320°
2026-05-06 06:35 31.46451 119.30270 31994 ft 461 kts 320°
2026-05-06 06:36 31.51570 119.25794 31999 ft 458 kts 320°
2026-05-06 06:36 31.56676 119.21341 32010 ft 457 kts 320°
2026-05-06 06:37 31.61753 119.16847 32011 ft 458 kts 319°
2026-05-06 06:37 31.66729 119.12177 32007 ft 457 kts 315°
2026-05-06 06:38 31.71493 119.07240 32011 ft 457 kts 315°
2026-05-06 06:38 31.76299 119.02331 32011 ft 458 kts 316°
2026-05-06 06:39 31.81341 118.97732 32015 ft 462 kts 324°
2026-05-06 06:39 31.87019 118.94121 32009 ft 468 kts 333°
2026-05-06 06:40 31.93067 118.91356 32015 ft 469 kts 335°
2026-05-06 06:40 31.99192 118.88676 32004 ft 470 kts 335°
2026-05-06 06:41 32.05305 118.85962 31998 ft 470 kts 335°
2026-05-06 06:41 32.11417 118.83211 31992 ft 470 kts 335°
2026-05-06 06:42 32.17520 118.80450 31996 ft 470 kts 335°
2026-05-06 06:42 32.23624 118.77686 31995 ft 469 kts 335°
2026-05-06 06:43 32.29726 118.74920 31984 ft 469 kts 335°
2026-05-06 06:43 32.35781 118.72172 31990 ft 469 kts 335°
2026-05-06 06:44 32.41882 118.69399 31974 ft 469 kts 335°
2026-05-06 06:44 32.47979 118.66624 31978 ft 470 kts 335°
2026-05-06 06:45 32.54079 118.63843 31975 ft 470 kts 335°
2026-05-06 06:45 32.60175 118.61059 31979 ft 470 kts 335°
2026-05-06 06:46 32.66276 118.58272 31978 ft 470 kts 335°
2026-05-06 06:46 32.72517 118.55866 31971 ft 472 kts 339°
2026-05-06 06:47 32.78831 118.53673 31970 ft 473 kts 339°
2026-05-06 06:47 32.82012 118.52563 32684 ft 483 kts 343°
2026-05-06 06:47 32.85266 118.51419 32453 ft 491 kts 343°
2026-05-06 06:47 32.88543 118.50261 32292 ft 491 kts 343°
2026-05-06 06:48 32.91805 118.49101 32197 ft 488 kts 343°
2026-05-06 06:48 32.97178 118.47185 32118 ft 483 kts 343°
2026-05-06 06:49 33.03587 118.44895 32107 ft 482 kts 343°
2026-05-06 06:49 33.11141 118.42193 32100 ft 489 kts 343°
2026-05-06 06:50 33.16606 118.40235 32100 ft 489 kts 343°
2026-05-06 06:50 33.23122 118.37899 32100 ft 489 kts 343°
2026-05-06 06:51 33.29632 118.35555 32100 ft 488 kts 343°
2026-05-06 06:51 33.36128 118.33209 32102 ft 488 kts 343°
2026-05-06 06:52 33.42622 118.30861 32101 ft 487 kts 343°
2026-05-06 06:52 33.49104 118.28514 32100 ft 487 kts 343°
2026-05-06 06:53 33.55589 118.26162 32100 ft 487 kts 343°
2026-05-06 06:53 33.62071 118.23808 32101 ft 487 kts 343°
2026-05-06 06:54 33.68511 118.21465 32102 ft 487 kts 343°
2026-05-06 06:54 33.74992 118.19103 32102 ft 487 kts 343°
2026-05-06 06:55 33.81474 118.16738 32101 ft 487 kts 343°
2026-05-06 06:55 33.87958 118.14371 32101 ft 487 kts 343°
2026-05-06 06:56 33.94441 118.12002 32101 ft 487 kts 343°
2026-05-06 06:56 34.00928 118.09628 32101 ft 487 kts 343°
2026-05-06 06:57 34.07417 118.07258 32101 ft 487 kts 343°
2026-05-06 06:57 34.13907 118.04890 32102 ft 487 kts 343°
2026-05-06 06:58 34.20394 118.02518 31294 ft 485 kts 338°
2026-05-06 06:58 34.23596 118.01348 31549 ft 478 kts 338°
2026-05-06 06:58 34.26761 118.00187 31717 ft 475 kts 338°
2026-05-06 06:58 34.29945 117.99023 31953 ft 479 kts 338°
2026-05-06 06:59 34.33100 117.97893 32426 ft 478 kts 338°
2026-05-06 06:59 34.36309 117.96758 33101 ft 472 kts 338°
2026-05-06 06:59 34.39406 117.95666 33727 ft 467 kts 338°
2026-05-06 06:59 34.42565 117.94547 33920 ft 468 kts 338°
2026-05-06 07:00 34.45644 117.93451 33913 ft 466 kts 338°
2026-05-06 07:00 34.51854 117.91232 33908 ft 465 kts 338°
2026-05-06 07:01 34.58059 117.89009 33913 ft 466 kts 338°
2026-05-06 07:01 34.64281 117.86779 33911 ft 466 kts 338°
2026-05-06 07:02 34.70508 117.84543 33905 ft 467 kts 338°
2026-05-06 07:02 34.76732 117.82306 33906 ft 467 kts 338°
2026-05-06 07:03 34.82962 117.80064 33904 ft 467 kts 338°
2026-05-06 07:03 34.89191 117.77835 33907 ft 466 kts 337°
2026-05-06 07:04 34.95398 117.75572 33906 ft 466 kts 337°
2026-05-06 07:04 35.01608 117.73305 33899 ft 466 kts 337°
2026-05-06 07:05 35.07807 117.71043 33898 ft 465 kts 337°
2026-05-06 07:05 35.14014 117.68769 33891 ft 465 kts 337°
2026-05-06 07:06 35.20202 117.66495 33893 ft 464 kts 337°
2026-05-06 07:06 35.26392 117.64216 33892 ft 464 kts 336°
2026-05-06 07:07 35.32563 117.61941 33889 ft 463 kts 336°
2026-05-06 07:07 35.38733 117.59662 33887 ft 463 kts 336°
2026-05-06 07:08 35.44898 117.57382 33885 ft 463 kts 336°
2026-05-06 07:08 35.51021 117.55114 33887 ft 462 kts 336°
2026-05-06 07:09 35.57183 117.52828 33880 ft 462 kts 336°
2026-05-06 07:09 35.63343 117.50539 33879 ft 462 kts 336°
2026-05-06 07:10 35.69495 117.48249 33876 ft 462 kts 336°
2026-05-06 07:10 35.75641 117.45958 33870 ft 461 kts 336°
2026-05-06 07:11 35.81775 117.43668 33871 ft 460 kts 336°
2026-05-06 07:11 35.87893 117.41379 33862 ft 459 kts 336°
2026-05-06 07:12 35.93981 117.39098 33862 ft 457 kts 336°
2026-05-06 07:12 36.00059 117.36817 33864 ft 455 kts 336°
2026-05-06 07:13 36.06125 117.34563 33866 ft 455 kts 336°
2026-05-06 07:13 36.12187 117.32324 33859 ft 455 kts 336°
2026-05-06 07:14 36.18205 117.30095 33857 ft 454 kts 336°
2026-05-06 07:14 36.24254 117.27846 33859 ft 454 kts 336°
2026-05-06 07:15 36.30308 117.25590 33861 ft 454 kts 336°
2026-05-06 07:15 36.36368 117.23330 33855 ft 455 kts 336°
2026-05-06 07:16 36.42417 117.21004 33861 ft 453 kts 333°
2026-05-06 07:16 36.48224 117.18049 33839 ft 451 kts 330°
2026-05-06 07:17 36.54004 117.14995 33844 ft 451 kts 330°
2026-05-06 07:17 36.59787 117.11956 33842 ft 452 kts 330°
2026-05-06 07:18 36.65588 117.08924 33842 ft 452 kts 330°
2026-05-06 07:18 36.71398 117.05890 33839 ft 453 kts 330°
2026-05-06 07:19 36.77216 117.02847 33836 ft 453 kts 330°
2026-05-06 07:19 36.83039 116.99796 33836 ft 454 kts 329°
2026-05-06 07:20 36.88855 116.96743 33842 ft 454 kts 329°
2026-05-06 07:20 36.94673 116.93683 33839 ft 453 kts 329°
2026-05-06 07:21 37.00487 116.90620 33842 ft 453 kts 329°
2026-05-06 07:21 37.06296 116.87555 33840 ft 453 kts 329°
2026-05-06 07:22 37.12028 116.84533 33753 ft 437 kts 328°
2026-05-06 07:22 37.14801 116.83067 33634 ft 429 kts 328°
2026-05-06 07:22 37.17535 116.81618 33397 ft 425 kts 328°
2026-05-06 07:22 37.20253 116.80175 33034 ft 423 kts 328°
2026-05-06 07:23 37.23010 116.78855 32622 ft 428 kts 333°
2026-05-06 07:23 37.25828 116.77766 32255 ft 429 kts 334°
2026-05-06 07:23 37.28681 116.76706 31920 ft 427 kts 334°
2026-05-06 07:23 37.31519 116.75661 31604 ft 424 kts 334°
2026-05-06 07:24 37.34346 116.74616 31304 ft 422 kts 334°
2026-05-06 07:24 37.37152 116.73570 30994 ft 420 kts 334°
2026-05-06 07:24 37.39945 116.72522 30682 ft 418 kts 334°
2026-05-06 07:24 37.42726 116.71472 30385 ft 416 kts 333°
2026-05-06 07:25 37.45490 116.70426 30097 ft 414 kts 333°
2026-05-06 07:25 37.48239 116.69384 29804 ft 412 kts 333°
2026-05-06 07:25 37.50975 116.68345 29480 ft 410 kts 333°
2026-05-06 07:25 37.53702 116.67309 29133 ft 408 kts 333°
2026-05-06 07:26 37.56414 116.66277 28785 ft 407 kts 334°
2026-05-06 07:26 37.59116 116.65248 28443 ft 405 kts 334°
2026-05-06 07:26 37.61814 116.64221 28109 ft 404 kts 334°
2026-05-06 07:26 37.64501 116.63197 27775 ft 403 kts 334°
2026-05-06 07:27 37.67181 116.62175 27447 ft 402 kts 334°
2026-05-06 07:27 37.69855 116.61155 27114 ft 401 kts 334°
2026-05-06 07:27 37.72525 116.60136 26795 ft 400 kts 334°
2026-05-06 07:27 37.75181 116.59121 26474 ft 400 kts 334°
2026-05-06 07:28 37.77842 116.58103 26168 ft 399 kts 334°
2026-05-06 07:28 37.80500 116.57086 25864 ft 399 kts 334°
2026-05-06 07:28 37.85798 116.55056 25300 ft 397 kts 334°
2026-05-06 07:29 37.88433 116.54046 25036 ft 396 kts 334°
2026-05-06 07:29 37.91065 116.53036 24752 ft 395 kts 334°
2026-05-06 07:29 37.93697 116.52026 24474 ft 395 kts 334°
2026-05-06 07:29 37.96248 116.50851 24206 ft 387 kts 327°
2026-05-06 07:30 37.98638 116.49333 23948 ft 381 kts 322°
2026-05-06 07:30 38.00843 116.47546 23692 ft 374 kts 316°
2026-05-06 07:30 38.02920 116.45638 23441 ft 372 kts 315°
2026-05-06 07:30 38.05031 116.43670 23160 ft 371 kts 315°
2026-05-06 07:31 38.07113 116.41741 22888 ft 370 kts 316°
2026-05-06 07:31 38.09167 116.39855 22645 ft 369 kts 316°
2026-05-06 07:31 38.11244 116.37953 22392 ft 367 kts 316°
2026-05-06 07:31 38.13309 116.36055 22124 ft 366 kts 316°
2026-05-06 07:32 38.15370 116.34152 21869 ft 365 kts 316°
2026-05-06 07:32 38.17416 116.32258 21623 ft 364 kts 316°
2026-05-06 07:32 38.19465 116.30363 21384 ft 363 kts 316°
2026-05-06 07:32 38.21506 116.28474 21141 ft 362 kts 317°
2026-05-06 07:33 38.23555 116.26614 20879 ft 361 kts 321°
2026-05-06 07:33 38.25934 116.25399 20488 ft 380 kts 343°
2026-05-06 07:33 38.28610 116.25256 20225 ft 394 kts
2026-05-06 07:33 38.31287 116.26037 19982 ft 395 kts 10°
2026-05-06 07:34 38.33938 116.26981 19734 ft 396 kts 11°
2026-05-06 07:34 38.36581 116.27951 19517 ft 395 kts 11°
2026-05-06 07:34 38.39216 116.28909 19323 ft 393 kts 11°
2026-05-06 07:34 38.41848 116.29848 19140 ft 392 kts 11°
2026-05-06 07:35 38.44476 116.30770 18952 ft 391 kts 10°
2026-05-06 07:35 38.47099 116.31681 18747 ft 390 kts 10°
2026-05-06 07:35 38.49709 116.32583 18560 ft 389 kts 11°
2026-05-06 07:35 38.52288 116.33473 18358 ft 389 kts 11°
2026-05-06 07:36 38.54896 116.34373 18172 ft 388 kts 11°
2026-05-06 07:36 38.57534 116.35285 17953 ft 387 kts 11°
2026-05-06 07:36 38.59256 116.35880 17828 ft 386 kts 11°
2026-05-06 07:36 38.62680 116.37065 17579 ft 384 kts 11°
2026-05-06 07:37 38.65256 116.37954 17385 ft 381 kts 10°
2026-05-06 07:37 38.67816 116.38744 17225 ft 377 kts
2026-05-06 07:37 38.70377 116.39458 17021 ft 378 kts
2026-05-06 07:37 38.72122 116.39932 16879 ft 378 kts
2026-05-06 07:38 38.74658 116.40622 16671 ft 376 kts
2026-05-06 07:38 38.77239 116.41334 16451 ft 374 kts
2026-05-06 07:38 38.79744 116.42032 16248 ft 372 kts
2026-05-06 07:38 38.82259 116.42739 16042 ft 369 kts
2026-05-06 07:39 38.84762 116.43447 15827 ft 367 kts
2026-05-06 07:39 38.87252 116.44153 15625 ft 365 kts
2026-05-06 07:39 38.89725 116.44856 15426 ft 363 kts
2026-05-06 07:39 38.92194 116.45557 15222 ft 362 kts
2026-05-06 07:40 38.94644 116.46253 15019 ft 360 kts
2026-05-06 07:40 38.97082 116.46947 14810 ft 358 kts
2026-05-06 07:40 38.99505 116.47636 14621 ft 356 kts
2026-05-06 07:40 39.01919 116.48325 14410 ft 355 kts
2026-05-06 07:41 39.04320 116.49010 14221 ft 352 kts
2026-05-06 07:41 39.06711 116.49692 14013 ft 350 kts
2026-05-06 07:41 39.09088 116.50372 13816 ft 348 kts
2026-05-06 07:41 39.11435 116.50952 13596 ft 340 kts
2026-05-06 07:42 39.13701 116.50816 13291 ft 335 kts 348°
2026-05-06 07:42 39.16008 116.50409 12969 ft 335 kts 348°
2026-05-06 07:42 39.18309 116.49995 12673 ft 332 kts 348°
2026-05-06 07:42 39.20586 116.49603 12360 ft 327 kts 348°
2026-05-06 07:43 39.22818 116.49233 12063 ft 320 kts 348°
2026-05-06 07:43 39.25012 116.48880 11779 ft 316 kts 348°
2026-05-06 07:43 39.27188 116.48533 11502 ft 314 kts 348°
2026-05-06 07:43 39.29349 116.48190 11229 ft 312 kts 348°
2026-05-06 07:44 39.31472 116.47858 10940 ft 311 kts 348°
2026-05-06 07:44 39.33636 116.47522 10667 ft 307 kts 348°
2026-05-06 07:44 39.35691 116.47203 10513 ft 296 kts 348°
2026-05-06 07:44 39.37709 116.46889 10303 ft 289 kts 348°
2026-05-06 07:45 39.39683 116.46582 10026 ft 283 kts 348°
2026-05-06 07:45 39.41619 116.46278 9783 ft 275 kts 348°
2026-05-06 07:45 39.43465 116.45991 9498 ft 261 kts 348°
2026-05-06 07:45 39.45235 116.45714 9258 ft 252 kts 348°
2026-05-06 07:46 39.46991 116.45492 9050 ft 258 kts 357°
2026-05-06 07:46 39.48776 116.46127 8822 ft 277 kts 25°
2026-05-06 07:46 39.50371 116.47565 8588 ft 280 kts 31°
2026-05-06 07:46 39.51939 116.49076 8324 ft 281 kts 31°
2026-05-06 07:47 39.53489 116.50575 8053 ft 276 kts 32°
2026-05-06 07:47 39.55015 116.52050 7813 ft 270 kts 32°
2026-05-06 07:47 39.56506 116.53484 7589 ft 265 kts 32°
2026-05-06 07:47 39.57988 116.54906 7347 ft 265 kts 32°
2026-05-06 07:48 39.59467 116.56322 7101 ft 263 kts 32°
2026-05-06 07:48 39.60931 116.57724 6881 ft 261 kts 32°
2026-05-06 07:48 39.62387 116.59114 6643 ft 259 kts 32°
2026-05-06 07:48 39.63836 116.60499 6400 ft 257 kts 32°
2026-05-06 07:49 39.65270 116.61870 6195 ft 255 kts 33°
2026-05-06 07:49 39.66743 116.63064 5899 ft 244 kts 16°
2026-05-06 07:49 39.68367 116.63318 5785 ft 238 kts 358°
2026-05-06 07:49 39.70037 116.63208 5575 ft 243 kts 355°
2026-05-06 07:50 39.71737 116.63003 5368 ft 247 kts 354°
2026-05-06 07:50 39.73449 116.62754 5179 ft 247 kts 354°
2026-05-06 07:50 39.75141 116.62490 4967 ft 242 kts 354°
2026-05-06 07:50 39.76785 116.62230 4790 ft 234 kts 354°
2026-05-06 07:51 39.78343 116.61984 4574 ft 216 kts 354°
2026-05-06 07:51 39.79775 116.61758 4402 ft 200 kts 354°
2026-05-06 07:51 39.81117 116.61547 4344 ft 192 kts 354°
2026-05-06 07:51 39.82432 116.61341 4114 ft 196 kts 354°
2026-05-06 07:52 39.83678 116.61147 3977 ft 185 kts 354°
2026-05-06 07:52 39.84895 116.60955 3882 ft 177 kts 354°
2026-05-06 07:52 39.86101 116.60765 3714 ft 170 kts 355°
2026-05-06 07:52 39.87258 116.60584 3593 ft 168 kts 355°
2026-05-06 07:53 39.88437 116.60402 3510 ft 175 kts 355°
2026-05-06 07:53 39.89659 116.60208 3289 ft 175 kts 356°
2026-05-06 07:53 39.90856 116.60019 3175 ft 172 kts 355°
2026-05-06 07:53 39.92033 116.59833 3055 ft 167 kts 355°
2026-05-06 07:54 39.93210 116.59648 2879 ft 175 kts 356°
2026-05-06 07:54 39.94406 116.59460 2644 ft 172 kts 356°
2026-05-06 07:54 39.95570 116.59277 2408 ft 165 kts 356°
2026-05-06 07:54 39.96674 116.59102 2212 ft 153 kts 357°
2026-05-06 07:55 39.97704 116.58940 2006 ft 147 kts 357°
2026-05-06 07:55 39.98731 116.58778 1839 ft 150 kts 357°
2026-05-06 07:55 39.99782 116.58616 1665 ft 154 kts 357°
2026-05-06 07:55 40.00853 116.58444 1431 ft 156 kts 357°
2026-05-06 07:56 40.01933 116.58272 1209 ft 156 kts 356°
2026-05-06 07:56 40.03001 116.58105 1004 ft 153 kts 356°
2026-05-06 07:56 40.04071 116.57936 799 ft 156 kts 355°
2026-05-06 07:56 40.05135 116.57767 576 ft 151 kts 354°
2026-05-06 07:57 40.06178 116.57608 363 ft 151 kts 355°
2026-05-06 07:57 40.07203 116.57445 205 ft 150 kts 354°
2026-05-06 07:57 40.08232 116.57282 127 ft 143 kts 354°
2026-05-06 07:57 40.09083 116.57153 123 ft 94 kts 353°
2026-05-06 07:58 40.09433 116.57105 126 ft 37 kts
2026-05-06 07:58 40.09631 116.57165 127 ft 14 kts 22°
2026-05-06 07:58 40.09685 116.57201 127 ft 9 kts 45°
2026-05-06 07:58 40.09679 116.57273 124 ft 9 kts 143°
2026-05-06 07:59 40.09614 116.57287 127 ft 10 kts 175°
2026-05-06 07:59 40.09546 116.57306 125 ft 10 kts 173°
2026-05-06 07:59 40.09474 116.57317 125 ft 11 kts 173°
2026-05-06 07:59 40.09408 116.57327 126 ft 4 kts 173°
2026-05-06 08:00 40.09380 116.57331 124 ft 4 kts 173°
2026-05-06 08:00 40.09349 116.57336 125 ft 5 kts 174°
2026-05-06 08:00 40.09313 116.57341 125 ft 5 kts 174°
2026-05-06 08:00 40.09273 116.57347 125 ft 6 kts 173°
2026-05-06 08:01 40.09229 116.57354 127 ft 7 kts 173°
2026-05-06 08:01 40.09182 116.57361 126 ft 7 kts 174°
2026-05-06 08:01 40.09110 116.57371 126 ft 8 kts 173°
2026-05-06 08:01 40.09064 116.57409 124 ft 9 kts 105°
2026-05-06 08:02 40.09062 116.57488 129 ft 9 kts 85°
2026-05-06 08:02 40.09068 116.57569 129 ft 9 kts 84°
2026-05-06 08:02 40.09075 116.57649 125 ft 9 kts 82°
2026-05-06 08:02 40.09082 116.57729 127 ft 9 kts 84°
2026-05-06 08:03 40.09042 116.57777 125 ft 9 kts 172°
2026-05-06 08:03 40.09006 116.57781 123 ft 3 kts 174°
2026-05-06 08:03 40.09004 116.57781 123 ft 0 kts 174°
2026-05-06 08:03 40.09004 116.57782 123 ft 0 kts 174°